When you browse on this site, cookies collect data to enhance your experience and personalize the content and advertising you see.
Visit our Privacy Policy to learn more. By continuing to use the site, you agree to this use of cookies and data.
  • In Hungary
  • List of Countries
  • For 7 days
  • Water Temperature
  • Satellite Maps
  • Weather Map
  • News
  • Weather Widgets
  • user-avatar
    Login

    Hourly Weather Maracay

    Today, 19 January, Saturday

    Time Temperature Precipitation Wind Pressure Humidity
    00:00 +22°C° 0 mm 1 mps 712 mmHg 92%
    01:00 +22°C° 0 mm 1 mps 711 mmHg 92%
    02:00 +22°C° 0 mm 1 mps 712 mmHg 92%
    03:00 +22°C° 0 mm 1 mps 712 mmHg 92%
    04:00 +22°C° 0 mm 1 mps 712 mmHg 91%
    05:00 +22°C° 0 mm 1 mps 712 mmHg 88%
    06:00 +23°C° 0 mm 1 mps 712 mmHg 85%
    07:00 +23°C° 0 mm 1 mps 713 mmHg 81%
    08:00 +26°C° 0 mm 1 mps 713 mmHg 71%
    09:00 +28°C° 0 mm 1 mps 714 mmHg 60%
    10:00 +31°C° 0 mm 1 mps 714 mmHg 49%
    11:00 +32°C° 0 mm 1 mps 714 mmHg 47%
    12:00 +34°C° 0 mm 2 mps 713 mmHg 44%
    13:00 +34°C° 0 mm 2 mps 712 mmHg 42%
    14:00 +32°C° 0 mm 2 mps 712 mmHg 45%
    15:00 +31°C° 0 mm 2 mps 711 mmHg 47%
    16:00 +30°C° 0 mm 2 mps 710 mmHg 50%
    17:00 +28°C° 0 mm 2 mps 710 mmHg 59%
    18:00 +26°C° 0 mm 1 mps 711 mmHg 69%
    19:00 +24°C° 0 mm 1 mps 711 mmHg 78%
    20:00 +24°C° 0 mm 1 mps 711 mmHg 81%
    21:00 +23°C° 0 mm 1 mps 711 mmHg 85%
    22:00 +23°C° 0 mm 1 mps 712 mmHg 88%
    23:00 +22°C° 0 mm 1 mps 712 mmHg 88%

    Tomorrow, 20 January, Sunday

    Time Temperature Precipitation Wind Pressure Humidity
    00:00 +22°C° 0 mm 1 mps 711 mmHg 89%
    01:00 +22°C° 0 mm 1 mps 711 mmHg 89%
    02:00 +22°C° 0 mm 1 mps 711 mmHg 88%
    03:00 +21°C° 0 mm 1 mps 711 mmHg 88%
    04:00 +21°C° 0 mm 1 mps 711 mmHg 87%
    05:00 +22°C° 0 mm 1 mps 712 mmHg 83%
    06:00 +22°C° 0 mm 1 mps 712 mmHg 80%
    07:00 +23°C° 0 mm 1 mps 713 mmHg 76%
    08:00 +26°C° 0 mm 1 mps 713 mmHg 66%
    09:00 +28°C° 0 mm 1 mps 714 mmHg 56%
    10:00 +31°C° 0 mm 2 mps 714 mmHg 46%
    11:00 +32°C° 0 mm 2 mps 714 mmHg 44%
    12:00 +32°C° 0 mm 2 mps 713 mmHg 42%
    13:00 +34°C° 0 mm 2 mps 712 mmHg 40%
    14:00 +32°C° 0 mm 2 mps 711 mmHg 42%
    15:00 +32°C° 0 mm 2 mps 711 mmHg 44%
    16:00 +31°C° 0 mm 2 mps 710 mmHg 46%
    17:00 +29°C° 0 mm 2 mps 710 mmHg 55%
    18:00 +26°C° 0 mm 1 mps 711 mmHg 64%
    19:00 +24°C° 0 mm 1 mps 711 mmHg 74%
    20:00 +24°C° 0 mm 1 mps 711 mmHg 78%
    21:00 +23°C° 0 mm 1 mps 712 mmHg 82%
    22:00 +23°C° 0 mm 1 mps 712 mmHg 86%
    23:00 +23°C° 0 mm 1 mps 712 mmHg 88%

    Day after tomorrow, 21 January, Monday

    Time Temperature Precipitation Wind Pressure Humidity
    00:00 +22°C° 0 mm 1 mps 712 mmHg 89%
    01:00 +22°C° 0 mm 1 mps 711 mmHg 90%
    02:00 +22°C° 0 mm 1 mps 711 mmHg 90%
    03:00 +22°C° 0 mm 1 mps 711 mmHg 90%
    04:00 +22°C° 0 mm 1 mps 711 mmHg 90%
    05:00 +22°C° 0 mm 1 mps 712 mmHg 87%
    06:00 +23°C° 0 mm 1 mps 712 mmHg 83%
    07:00 +24°C° 0 mm 1 mps 713 mmHg 80%
    08:00 +27°C° 0 mm 1 mps 714 mmHg 70%
    09:00 +29°C° 0 mm 1 mps 715 mmHg 59%
    10:00 +32°C° 0 mm 1 mps 715 mmHg 49%
    11:00 +32°C° 0 mm 1 mps 714 mmHg 48%
    12:00 +32°C° 0 mm 1 mps 714 mmHg 48%
    13:00 +33°C° 0 mm 1 mps 713 mmHg 48%
    14:00 +31°C° 0.1 mm 2 mps 712 mmHg 52%
    15:00 +30°C° 0.1 mm 2 mps 712 mmHg 57%
    16:00 +29°C° 0.1 mm 2 mps 711 mmHg 62%
    17:00 +27°C° 0.1 mm 2 mps 711 mmHg 70%
    18:00 +26°C° 0.1 mm 2 mps 712 mmHg 78%
    19:00 +24°C° 0.1 mm 2 mps 712 mmHg 87%
    20:00 +24°C° 0 mm 2 mps 712 mmHg 88%
    21:00 +24°C° 0 mm 2 mps 713 mmHg 89%
    22:00 +23°C° 0 mm 1 mps 713 mmHg 90%
    23:00 +23°C° 0 mm 1 mps 713 mmHg 91%

    22 January, Tuesday

    Time Temperature Precipitation Wind Pressure Humidity
    00:00 +22°C° 0 mm 1 mps 712 mmHg 92%
    01:00 +22°C° 0 mm 1 mps 712 mmHg 93%
    02:00 +22°C° 0 mm 1 mps 712 mmHg 93%
    03:00 +22°C° 0 mm 1 mps 712 mmHg 93%
    04:00 +22°C° 0 mm 1 mps 712 mmHg 93%
    05:00 +22°C° 0 mm 1 mps 712 mmHg 90%
    06:00 +23°C° 0 mm 1 mps 713 mmHg 87%
    07:00 +23°C° 0 mm 1 mps 714 mmHg 84%
    08:00 +25°C° 0 mm 1 mps 714 mmHg 74%
    09:00 +27°C° 0 mm 1 mps 715 mmHg 64%
    10:00 +29°C° 0 mm 2 mps 715 mmHg 55%
    11:00 +30°C° 0 mm 2 mps 714 mmHg 51%
    12:00 +31°C° 0 mm 2 mps 714 mmHg 48%
    13:00 +32°C° 0 mm 2 mps 713 mmHg 45%
    14:00 +31°C° 0 mm 2 mps 712 mmHg 48%
    15:00 +30°C° 0 mm 2 mps 712 mmHg 52%
    16:00 +29°C° 0 mm 2 mps 711 mmHg 56%
    17:00 +27°C° 0 mm 2 mps 711 mmHg 66%
    18:00 +26°C° 0 mm 2 mps 712 mmHg 75%
    19:00 +24°C° 0 mm 2 mps 712 mmHg 85%
    20:00 +24°C° 0 mm 2 mps 712 mmHg 86%
    21:00 +23°C° 0 mm 2 mps 713 mmHg 87%
    22:00 +23°C° 0 mm 2 mps 713 mmHg 89%
    23:00 +21°C° 0 mm 2 mps 713 mmHg 90%

    23 January, Wednesday

    Time Temperature Precipitation Wind Pressure Humidity
    00:00 +22°C° 0 mm 1 mps 713 mmHg 90%
    01:00 +22°C° 0 mm 1 mps 712 mmHg 91%
    02:00 +22°C° 0 mm 1 mps 712 mmHg 92%
    03:00 +22°C° 0 mm 1 mps 712 mmHg 92%
    04:00 +21°C° 0 mm 1 mps 712 mmHg 93%
    05:00 +22°C° 0 mm 1 mps 713 mmHg 89%
    06:00 +22°C° 0 mm 1 mps 713 mmHg 85%
    07:00 +23°C° 0 mm 1 mps 714 mmHg 82%
    08:00 +25°C° 0 mm 1 mps 714 mmHg 71%
    09:00 +28°C° 0 mm 1 mps 715 mmHg 60%
    10:00 +30°C° 0 mm 1 mps 715 mmHg 50%
    11:00 +31°C° 0 mm 2 mps 714 mmHg 47%
    12:00 +32°C° 0 mm 2 mps 714 mmHg 44%
    13:00 +34°C° 0 mm 2 mps 713 mmHg 42%
    14:00 +32°C° 0 mm 2 mps 712 mmHg 45%
    15:00 +31°C° 0 mm 2 mps 712 mmHg 49%
    16:00 +30°C° 0 mm 2 mps 711 mmHg 52%
    17:00 +28°C° 0 mm 2 mps 711 mmHg 61%
    18:00 +26°C° 0 mm 2 mps 711 mmHg 70%
    19:00 +24°C° 0 mm 2 mps 711 mmHg 79%
    20:00 +23°C° 0 mm 2 mps 712 mmHg 82%
    21:00 +23°C° 0 mm 1 mps 712 mmHg 84%
    22:00 +22°C° 0 mm 1 mps 712 mmHg 86%
    23:00 +22°C° 0 mm 1 mps 712 mmHg 87%

    24 January, Thursday

    Time Temperature Precipitation Wind Pressure Humidity
    00:00 +22°C° 0 mm 1 mps 712 mmHg 88%
    01:00 +22°C° 0 mm 1 mps 712 mmHg 89%
    02:00 +22°C° 0 mm 1 mps 712 mmHg 89%
    03:00 +22°C° 0 mm 1 mps 711 mmHg 90%
    04:00 +21°C° 0 mm 1 mps 711 mmHg 90%
    05:00 +22°C° 0 mm 1 mps 712 mmHg 87%
    06:00 +23°C° 0 mm 1 mps 712 mmHg 83%
    07:00 +23°C° 0 mm 1 mps 713 mmHg 80%
    08:00 +25°C° 0 mm 1 mps 713 mmHg 70%
    09:00 +28°C° 0 mm 1 mps 714 mmHg 59%
    10:00 +30°C° 0 mm 2 mps 714 mmHg 49%
    11:00 +31°C° 0 mm 2 mps 713 mmHg 46%
    12:00 +32°C° 0 mm 2 mps 713 mmHg 43%
    13:00 +34°C° 0 mm 2 mps 712 mmHg 40%
    14:00 +32°C° 0 mm 2 mps 712 mmHg 43%
    15:00 +31°C° 0 mm 2 mps 711 mmHg 46%
    16:00 +30°C° 0 mm 2 mps 710 mmHg 49%
    17:00 +28°C° 0 mm 2 mps 710 mmHg 59%
    18:00 +26°C° 0 mm 2 mps 711 mmHg 69%
    19:00 +24°C° 0 mm 2 mps 711 mmHg 79%
    20:00 +24°C° 0 mm 1 mps 711 mmHg 82%
    21:00 +23°C° 0 mm 1 mps 711 mmHg 85%
    22:00 +23°C° 0 mm 1 mps 712 mmHg 88%
    23:00 +22°C° 0 mm 1 mps 711 mmHg 88%
    Show more